This is the latest recevied weather packets stored in our database for station/object KO4ZGL-13. If no packets are shown the sender has not sent any weather packets the latest 10 day(s).
| Time | Temp. | Humidity | Pressure | Rain* | Wind** | Luminosity | Snow |
|---|---|---|---|---|---|---|---|
| 1788450651 | 33.33° C | 73% | 1018.8 hPa | 0 mm | - | 665 W/m² | - |
| 1788450348 | 33.33° C | 71% | 1018.9 hPa | 0 mm | - | 652 W/m² | - |
| 1788450044 | 32.78° C | 72% | 1018.8 hPa | 0 mm | - | 727 W/m² | - |
| 1788449739 | 32.78° C | 73% | 1018.7 hPa | 0 mm | - | 738 W/m² | - |
| 1788449434 | 32.78° C | 76% | 1018.7 hPa | 0 mm | - | 751 W/m² | - |
| 1788449130 | 32.78° C | 75% | 1018.8 hPa | 0 mm | - | 773 W/m² | - |
| 1788448827 | 31.67° C | 76% | 1018.8 hPa | 0 mm | - | 760 W/m² | - |
| 1788448525 | 31.67° C | 75% | 1018.9 hPa | 0 mm | - | 703 W/m² | - |
| 1788448221 | 31.67° C | 79% | 1018.9 hPa | 0 mm | - | 660 W/m² | - |
| 1788447921 | 32.22° C | 78% | 1018.6 hPa | 0 mm | - | 673 W/m² | - |
| 1788447616 | 31.67° C | 78% | 1018.6 hPa | 0 mm | - | 668 W/m² | - |
| 1788447310 | 31.67° C | 78% | 1018.5 hPa | 0 mm | - | 629 W/m² | - |
| 1788447006 | 32.22° C | 80% | 1018.8 hPa | 0 mm | - | 630 W/m² | - |
| 1788446705 | 31.67° C | 81% | 1018.3 hPa | 0 mm | - | 649 W/m² | - |
| 1788446401 | 31.11° C | 81% | 1018.7 hPa | 0 mm | - | 628 W/m² | - |
| 1788446097 | 30.56° C | 83% | 1018.5 hPa | 0 mm | - | 574 W/m² | - |
| 1788445792 | 31.11° C | 85% | 1018.7 hPa | 0 mm | - | 186 W/m² | - |
| 1788445488 | 31.11° C | 84% | 1018.5 hPa | 0 mm | - | 549 W/m² | - |
| 1788445184 | 30° C | 85% | 1018.5 hPa | 0 mm | - | 212 W/m² | - |
| 1788444879 | 29.44° C | 87% | 1018.9 hPa | 0 mm | - | 523 W/m² | - |
| 1788444575 | 30.56° C | 86% | 1018.5 hPa | 0 mm | - | 324 W/m² | - |
| 1788444270 | 30° C | 88% | 1018.5 hPa | 0 mm | - | 481 W/m² | - |
| 1788443965 | 29.44° C | 90% | 1018.3 hPa | 0 mm | - | 402 W/m² | - |
| 1788443661 | 28.89° C | 92% | 1018.5 hPa | 0 mm | - | 138 W/m² | - |
| 1788443355 | 28.89° C | 94% | 1018.4 hPa | 0 mm | - | 244 W/m² | - |
* Rain latest hour (hover to see other rain measurements)
** Current wind speed in m/s (hover to see current wind gust speed)